Flag for Bulgaria Weather past 2 weeks in Plovdiv, Bulgaria

Now
55 °F

Partly sunny.


Feels Like: 55 °F
Forecast: 50 / 67 °F
Wind: No wind

Location: Plovdiv Airport

Current Time: Oct 2, 2014 at 12:08:51 PM

Latest Report: Oct 2, 2014 at 11:00 AM


Visibility: N/A

Pressure: 30.33 "Hg

Humidity: 88%

Dew point: 52 °F

Location of PlovdivLocation

Historic Weather in Plovdiv — Graph

°F

Plovdiv temperature yesterday

Maximum temperature yesterday: 75 °F (at 3:00 PM)
Minimum temperature yesterday: 45 °F (at 7:00 AM)
Average temperature yesterday: 60 °F

Past Weeks' High & Low Weather Summary

 TemperatureHumidityPressure
High81 °F (Sep 22, 4:00 PM)100% (Sep 18, 3:00 AM)30.48 "Hg (Sep 18, 3:00 AM)
Low43 °F (Sep 25, 7:00 AM)40% (Sep 24, 3:00 PM)29.65 "Hg (Sep 23, 8:00 AM)
Average60 °F77%30.11 "Hg
* Reported Sep 17 11:00 AM — Oct 2 11:00 AM, Plovdiv, Weather by CustomWeather, © 2014

Note: Actual official high and low records may vary slightly from our data, if they occured in-between our weather recording intervals... More about our weather records

Advertising

Plovdiv weather history for previous 24 hours

 ConditionsComfort  
Time TempWeatherWind HumidityBarometerVisibility
11:00 AM
Oct 2
55 °FPartly sunny.No wind88%30.33 "HgN/A
10:00 AM55 °FScattered clouds.6 mph88%30.33 "HgN/A
9:00 AM54 °FScattered clouds.1 mph94%30.30 "HgN/A
8:00 AM52 °FPassing clouds.No wind94%30.30 "HgN/A
7:00 AM50 °FPassing clouds.No wind94%30.30 "HgN/A
6:00 AM54 °FClear.3 mph88%30.30 "Hg10 mi
5:00 AM55 °FPassing clouds.6 mph82%30.27 "HgN/A
4:00 AM57 °FClear.8 mph77%30.27 "Hg10 mi
3:00 AM55 °FClear.8 mph88%30.27 "Hg10 mi
2:00 AM57 °FClear.10 mph82%30.27 "Hg10 mi
1:00 AM55 °FClear.3 mph88%30.27 "Hg10 mi
12:00 AM54 °FClear.6 mph94%30.27 "Hg10 mi
11:00 PM
Oct 1
54 °FClear.3 mph94%30.24 "Hg10 mi
10:00 PM63 °FClear.10 mph73%30.24 "Hg10 mi
9:00 PM63 °FClear.10 mph73%30.24 "Hg10 mi
8:00 PM63 °FSunny.8 mph73%30.21 "Hg10 mi
7:00 PM66 °FSunny.3 mph68%30.21 "Hg10 mi
6:00 PM73 °FPassing clouds.6 mph44%30.18 "HgN/A
5:00 PM75 °FSunny.3 mph44%30.18 "Hg10 mi
4:00 PM75 °FPassing clouds.6 mph44%30.18 "HgN/A
3:00 PM75 °FSunny.3 mph44%30.21 "Hg10 mi
2:00 PM73 °FPassing clouds.6 mph47%30.24 "HgN/A
1:00 PM72 °FSunny.1 mph50%30.24 "Hg10 mi
12:00 PM68 °FSunny.1 mph53%30.27 "Hg10 mi
Weather by CustomWeather, © 2014

See weather overviewHow to use our weather pages